| time (UTC) | temp C | wind direction | speed KPH | gust KPH | rain 1hr cm | rain 24hr cm | rain mn cm | humidity % | barometer mb |
| 20260508194703 | 22 | 124 | 4.8 | 9.7 | 0.00 | 0.00 | 0.00 | 36 | 1015.1 |
| 20260508194204 | 22 | 257 | 4.8 | 16.1 | 0.00 | 0.00 | 0.00 | 38 | 1015.1 |
| 20260508193703 | 21 | 212 | 4.8 | 11.3 | 0.00 | 0.00 | 0.00 | 36 | 1015.2 |
| 20260508193203 | 21 | 260 | 1.6 | 4.8 | 0.00 | 0.00 | 0.00 | 38 | 1015.2 |
| 20260508192703 | 21 | 20 | 3.2 | 8.0 | 0.00 | 0.00 | 0.00 | 38 | 1015.3 |
| 20260508192203 | 21 | 28 | 3.2 | 8.0 | 0.00 | 0.00 | 0.00 | 36 | 1015.1 |
| 20260508191703 | 21 | 279 | 3.2 | 9.7 | 0.00 | 0.00 | 0.00 | 38 | 1015.4 |
| 20260508191203 | 21 | 269 | 4.8 | 11.3 | 0.00 | 0.00 | 0.00 | 39 | 1015.4 |
| 20260508190703 | 20 | 279 | 4.8 | 11.3 | 0.00 | 0.00 | 0.00 | 41 | 1015.6 |
| 20260508190202 | 20 | 38 | 4.8 | 9.7 | 0.00 | 0.00 | 0.00 | 38 | 1015.7 |
| 20260508185703 | 21 | 8 | 1.6 | 4.8 | 0.00 | 0.00 | 0.00 | 39 | 1015.8 |
| 20260508185203 | 21 | 90 | 3.2 | 4.8 | 0.00 | 0.00 | 0.00 | 36 | 1016.0 |
| 20260508184203 | 21 | 268 | 4.8 | 12.9 | 0.00 | 0.00 | 0.00 | 37 | 1016.1 |
| 20260508183703 | 21 | 46 | 3.2 | 9.7 | 0.00 | 0.00 | 0.00 | 42 | 1016.1 |
| 20260508182703 | 20 | 270 | 3.2 | 12.9 | 0.00 | 0.00 | 0.00 | 40 | 1016.2 |
| 20260508182203 | 20 | 276 | 3.2 | 12.9 | 0.00 | 0.00 | 0.00 | 39 | 1016.4 |
| 20260508181703 | 20 | 308 | 3.2 | 9.7 | 0.00 | 0.00 | 0.00 | 43 | 1016.4 |
| 20260508181203 | 20 | 29 | 3.2 | 4.8 | 0.00 | 0.00 | 0.00 | 37 | 1016.4 |
| 20260508180703 | 20 | 319 | 4.8 | 9.7 | 0.00 | 0.00 | 0.00 | 40 | 1016.4 |
| 20260508180203 | 20 | 358 | 3.2 | 12.9 | 0.00 | 0.00 | 0.00 | 41 | 1016.4 |
| 20260508175703 | 20 | 12 | 3.2 | 11.3 | 0.00 | 0.00 | 0.00 | 41 | 1016.6 |
| 20260508174703 | 20 | 229 | 3.2 | 8.0 | 0.00 | 0.00 | 0.00 | 44 | 1016.7 |
| 20260508174203 | 19 | 14 | 1.6 | 4.8 | 0.00 | 0.00 | 0.00 | 40 | 1016.8 |
| 20260508173703 | 19 | 295 | 3.2 | 4.8 | 0.00 | 0.00 | 0.00 | 41 | 1017.0 |
| 20260508172203 | 18 | 342 | 1.6 | 4.8 | 0.00 | 0.00 | 0.00 | 46 | 1017.3 |
| 20260508171702 | 18 | 291 | 3.2 | 9.7 | 0.00 | 0.00 | 0.00 | 42 | 1017.4 |
| 20260508171203 | 18 | 24 | 4.8 | 9.7 | 0.00 | 0.00 | 0.00 | 43 | 1017.4 |
| 20260508170703 | 18 | 348 | 3.2 | 11.3 | 0.00 | 0.00 | 0.00 | 44 | 1017.5 |
| 20260508165702 | 17 | 43 | 4.8 | 12.9 | 0.00 | 0.00 | 0.00 | 46 | 1017.7 |
| 20260508165203 | 17 | 11 | 4.8 | 9.7 | 0.00 | 0.00 | 0.00 | 45 | 1017.8 |
| 20260508164203 | 17 | 26 | 3.2 | 11.3 | 0.00 | 0.00 | 0.00 | 47 | 1018.0 |
| 20260508163703 | 17 | 100 | 3.2 | 8.0 | 0.00 | 0.00 | 0.00 | 46 | 1018.1 |
| 20260508163204 | 17 | 327 | 4.8 | 12.9 | 0.00 | 0.00 | 0.00 | 48 | 1018.1 |
| 20260508162703 | 17 | 40 | 3.2 | 8.0 | 0.00 | 0.00 | 0.00 | 54 | 1018.1 |
| 20260508161703 | 16 | 49 | 4.8 | 9.7 | 0.00 | 0.00 | 0.00 | 56 | 1018.4 |
| 20260508160703 | 16 | 68 | 3.2 | 9.7 | 0.00 | 0.00 | 0.00 | 55 | 1018.5 |
| 20260508160203 | 16 | 324 | 3.2 | 8.0 | 0.00 | 0.00 | 0.00 | 56 | 1018.6 |
| 20260508155703 | 16 | 327 | 3.2 | 12.9 | 0.00 | 0.00 | 0.00 | 58 | 1018.7 |
| 20260508155203 | 16 | 33 | 3.2 | 8.0 | 0.00 | 0.00 | 0.00 | 62 | 1018.7 |
| 20260508154703 | 15 | 33 | 3.2 | 4.8 | 0.00 | 0.00 | 0.00 | 59 | 1018.8 |
| 20260508154203 | 15 | 4 | 3.2 | 8.0 | 0.00 | 0.00 | 0.00 | 61 | 1018.8 |
| 20260508153703 | 15 | 13 | 3.2 | 8.0 | 0.00 | 0.00 | 0.00 | 62 | 1018.9 |
| 20260508153203 | 15 | 47 | 3.2 | 8.0 | 0.00 | 0.00 | 0.00 | 62 | 1018.9 |
| 20260508152703 | 15 | 22 | 4.8 | 8.0 | 0.00 | 0.00 | 0.00 | 64 | 1019.0 |
| 20260508152203 | 15 | 354 | 4.8 | 11.3 | 0.00 | 0.00 | 0.00 | 67 | 1019.0 |
| 20260508151703 | 15 | 0 | 4.8 | 12.9 | 0.00 | 0.00 | 0.00 | 66 | 1019.1 |
| 20260508151203 | 15 | 7 | 4.8 | 12.9 | 0.00 | 0.00 | 0.00 | 66 | 1019.1 |
| 20260508145703 | 15 | 35 | 3.2 | 9.7 | 0.00 | 0.00 | 0.00 | 66 | 1019.2 |
| 20260508145203 | 14 | 282 | 3.2 | 4.8 | 0.00 | 0.00 | 0.00 | 71 | 1019.3 |
| 20260508144703 | 13 | 270 | 1.6 | 4.8 | 0.00 | 0.00 | 0.00 | 77 | 1019.2 |
| 20260508144203 | 13 | 160 | 1.6 | 8.0 | 0.00 | 0.00 | 0.00 | 79 | 1019.2 |
| 20260508143703 | 12 | 295 | 1.6 | 4.8 | 0.00 | 0.03 | 0.00 | 82 | 1019.2 |
| 20260508142703 | 12 | 268 | 1.6 | 3.2 | 0.00 | 0.03 | 0.00 | 90 | 1019.2 |
| 20260508142203 | 11 | 130 | 3.2 | 4.8 | 0.00 | 0.03 | 0.00 | 92 | 1019.3 |
| 20260508141703 | 11 | 267 | 1.6 | 4.8 | 0.00 | 0.03 | 0.00 | 93 | 1019.3 |
| 20260508140703 | 10 | 206 | 1.6 | 3.2 | 0.00 | 0.03 | 0.00 | 94 | 1019.4 |
| 20260508140203 | 10 | 349 | 1.6 | 4.8 | 0.00 | 0.03 | 0.00 | 94 | 1019.5 |
| 20260508135703 | 10 | 306 | 1.6 | 8.0 | 0.00 | 0.03 | 0.00 | 94 | 1019.4 |
| 20260508135203 | 9 | 46 | 1.6 | 8.0 | 0.00 | 0.03 | 0.00 | 94 | 1019.5 |
| 20260508134204 | 8 | 194 | 1.6 | 4.8 | 0.00 | 0.03 | 0.00 | 94 | 1019.5 |
| 20260508133703 | 8 | 53 | 1.6 | 3.2 | 0.00 | 0.03 | 0.00 | 94 | 1019.5 |
| 20260508133203 | 8 | 45 | 1.6 | 4.8 | 0.00 | 0.03 | 0.00 | 94 | 1019.5 |
| 20260508132703 | 8 | 347 | 3.2 | 4.8 | 0.00 | 0.03 | 0.00 | 94 | 1019.5 |
| 20260508132203 | 8 | 348 | 3.2 | 4.8 | 0.00 | 0.03 | 0.00 | 94 | 1019.4 |
| 20260508130703 | 8 | 266 | 3.2 | 4.8 | 0.00 | 0.03 | 0.00 | 94 | 1019.3 |
| 20260508130203 | 8 | 187 | 1.6 | 4.8 | 0.00 | 0.03 | 0.00 | 94 | 1019.3 |
| 20260508125204 | 8 | 45 | 1.6 | 4.8 | 0.00 | 0.03 | 0.00 | 94 | 1019.2 |
| 20260508124703 | 8 | 6 | 1.6 | 3.2 | 0.00 | 0.03 | 0.00 | 94 | 1019.1 |
| 20260508123203 | 7 | 8 | 1.6 | 4.8 | 0.00 | 0.03 | 0.00 | 94 | 1019.0 |
| 20260508122704 | 7 | 7 | 1.6 | 3.2 | 0.00 | 0.03 | 0.00 | 94 | 1019.0 |
| 20260508122204 | 7 | 325 | 1.6 | 3.2 | 0.00 | 0.03 | 0.00 | 94 | 1019.0 |
| 20260508121203 | 7 | 172 | 1.6 | 3.2 | 0.00 | 0.03 | 0.00 | 94 | 1018.8 |
| 20260508120204 | 7 | 327 | 1.6 | 3.2 | 0.00 | 0.03 | 0.00 | 94 | 1018.8 |
| 20260508115703 | 7 | 2 | 1.6 | 3.2 | 0.00 | 0.03 | 0.00 | 94 | 1018.7 |
| 20260508115203 | 7 | 195 | 1.6 | 3.2 | 0.00 | 0.03 | 0.00 | 94 | 1018.6 |
| 20260508114203 | 7 | 263 | 1.6 | 3.2 | 0.00 | 0.03 | 0.00 | 94 | 1018.6 |
| 20260508113703 | 7 | 238 | 1.6 | 4.8 | 0.00 | 0.03 | 0.00 | 94 | 1018.4 |
| 20260508113202 | 7 | 302 | 1.6 | 3.2 | 0.00 | 0.03 | 0.00 | 94 | 1018.4 |
| 20260508112703 | 7 | 40 | 1.6 | 3.2 | 0.00 | 0.03 | 0.00 | 94 | 1018.3 |
| 20260508112203 | 7 | 74 | 1.6 | 3.2 | 0.00 | 0.05 | 0.00 | 94 | 1018.2 |
| 20260508111203 | 7 | 171 | 1.6 | 4.8 | 0.00 | 0.05 | 0.00 | 94 | 1018.1 |
| 20260508110703 | 7 | 151 | 1.6 | 3.2 | 0.00 | 0.05 | 0.00 | 94 | 1018.0 |
| 20260508110203 | 7 | 185 | 1.6 | 3.2 | 0.00 | 0.05 | 0.00 | 94 | 1017.9 |
| 20260508105703 | 8 | 178 | 1.6 | 4.8 | 0.00 | 0.05 | 0.00 | 94 | 1017.9 |
| 20260508105203 | 8 | 145 | 1.6 | 1.6 | 0.00 | 0.05 | 0.00 | 94 | 1017.8 |
| 20260508103703 | 8 | 145 | 0.0 | 8.0 | 0.00 | 0.05 | 0.00 | 94 | 1017.6 |
| 20260508103203 | 8 | 173 | 1.6 | 4.8 | 0.00 | 0.08 | 0.00 | 94 | 1017.5 |
| 20260508102703 | 8 | 219 | 1.6 | 4.8 | 0.00 | 0.08 | 0.00 | 94 | 1017.5 |
| 20260508102203 | 8 | 184 | 1.6 | 3.2 | 0.00 | 0.08 | 0.00 | 94 | 1017.4 |
| 20260508101703 | 8 | 124 | 0.0 | 3.2 | 0.00 | 0.08 | 0.00 | 94 | 1017.4 |
| 20260508101204 | 8 | 183 | 1.6 | 4.8 | 0.00 | 0.08 | 0.00 | 94 | 1017.3 |
| 20260508100203 | 8 | 58 | 3.2 | 4.8 | 0.00 | 0.08 | 0.00 | 94 | 1017.3 |
| 20260508095703 | 8 | 180 | 0.0 | 3.2 | 0.00 | 0.08 | 0.00 | 94 | 1017.2 |
| 20260508095204 | 8 | 41 | 1.6 | 4.8 | 0.00 | 0.08 | 0.00 | 94 | 1017.3 |
| 20260508094703 | 8 | 46 | 0.0 | 3.2 | 0.00 | 0.08 | 0.00 | 94 | 1017.2 |
| 20260508094203 | 8 | 128 | 0.0 | 1.6 | 0.00 | 0.08 | 0.00 | 94 | 1017.3 |
| 20260508093703 | 8 | 292 | 0.0 | 4.8 | 0.00 | 0.08 | 0.00 | 94 | 1017.2 |
| 20260508092203 | 8 | 323 | 1.6 | 3.2 | 0.00 | 0.08 | 0.00 | 94 | 1017.4 |
| 20260508091203 | 8 | 326 | 0.0 | 3.2 | 0.00 | 0.08 | 0.00 | 94 | 1017.2 |
| 20260508090703 | 8 | 340 | 1.6 | 3.2 | 0.00 | 0.08 | 0.00 | 94 | 1017.2 |
| 20260508090203 | 8 | 147 | 0.0 | 3.2 | 0.00 | 0.08 | 0.00 | 94 | 1017.1 |
| 20260508085203 | 8 | 266 | 1.6 | 1.6 | 0.00 | 0.08 | 0.00 | 94 | 1017.0 |
| 20260508084703 | 8 | 309 | 0.0 | 3.2 | 0.00 | 0.08 | 0.00 | 94 | 1017.0 |
| 20260508084204 | 8 | 281 | 1.6 | 3.2 | 0.00 | 0.08 | 0.00 | 94 | 1017.1 |
| 20260508083703 | 8 | 303 | 0.0 | 1.6 | 0.00 | 0.08 | 0.00 | 94 | 1017.1 |
| 20260508083203 | 8 | 304 | 0.0 | 1.6 | 0.00 | 0.08 | 0.00 | 94 | 1017.0 |
| 20260508082703 | 8 | 305 | 1.6 | 3.2 | 0.00 | 0.08 | 0.00 | 93 | 1017.0 |
| 20260508081703 | 8 | 254 | 0.0 | 1.6 | 0.00 | 0.08 | 0.00 | 93 | 1017.1 |
| 20260508081203 | 8 | 264 | 1.6 | 3.2 | 0.00 | 0.08 | 0.00 | 93 | 1017.1 |
| 20260508080704 | 8 | 243 | 0.0 | 1.6 | 0.00 | 0.08 | 0.00 | 93 | 1017.0 |
| 20260508080204 | 8 | 274 | 1.6 | 3.2 | 0.00 | 0.08 | 0.00 | 93 | 1016.9 |
| 20260508075703 | 8 | 310 | 1.6 | 3.2 | 0.00 | 0.08 | 0.00 | 93 | 1016.9 |
| 20260508075203 | 8 | 286 | 1.6 | 3.2 | 0.00 | 0.08 | 0.00 | 94 | 1017.0 |
| 20260508074703 | 8 | 291 | 0.0 | 1.6 | 0.00 | 0.08 | 0.00 | 94 | 1017.0 |
| 20260508074203 | 8 | 51 | 0.0 | 1.6 | 0.00 | 0.10 | 0.00 | 93 | 1016.9 |
| 20260508073703 | 8 | 313 | 0.0 | 1.6 | 0.00 | 0.10 | 0.00 | 93 | 1017.1 |
| 20260508073203 | 8 | 41 | 0.0 | 1.6 | 0.00 | 0.10 | 0.00 | 93 | 1017.1 |
| 20260508072704 | 8 | 10 | 0.0 | 1.6 | 0.00 | 0.10 | 0.00 | 93 | 1017.0 |
| 20260508071704 | 8 | 301 | 0.0 | 1.6 | 0.00 | 0.13 | 0.00 | 94 | 1017.0 |
| 20260508071203 | 8 | 290 | 0.0 | 1.6 | 0.00 | 0.15 | 0.00 | 94 | 1016.9 |
| 20260508070703 | 8 | 324 | 0.0 | 1.6 | 0.00 | 0.15 | 0.00 | 94 | 1016.9 |
| 20260508065703 | 8 | 40 | 0.0 | 1.6 | 0.00 | 0.15 | 0.00 | 93 | 1017.0 |
| 20260508065203 | 8 | 144 | 1.6 | 1.6 | 0.00 | 0.15 | 0.00 | 93 | 1017.1 |
| 20260508064704 | 8 | 142 | 1.6 | 3.2 | 0.00 | 0.15 | 0.00 | 93 | 1017.2 |
| 20260508064203 | 8 | 166 | 1.6 | 3.2 | 0.00 | 0.15 | 0.00 | 93 | 1017.2 |
| 20260508063703 | 8 | 185 | 1.6 | 3.2 | 0.00 | 0.15 | 0.00 | 93 | 1017.2 |
| 20260508063203 | 7 | 105 | 1.6 | 3.2 | 0.00 | 0.15 | 0.00 | 93 | 1017.1 |
| 20260508062203 | 7 | 212 | 0.0 | 1.6 | 0.00 | 0.15 | 0.00 | 92 | 1017.1 |
| 20260508061203 | 7 | 295 | 1.6 | 3.2 | 0.00 | 0.15 | 0.00 | 92 | 1017.0 |
| 20260508060703 | 7 | 273 | 1.6 | 1.6 | 0.00 | 0.15 | 0.00 | 92 | 1017.2 |
| 20260508060203 | 7 | 247 | 1.6 | 3.2 | 0.00 | 0.15 | 0.00 | 92 | 1017.3 |
| 20260508055703 | 7 | 262 | 1.6 | 1.6 | 0.00 | 0.15 | 0.00 | 92 | 1017.1 |
| 20260508055203 | 7 | 217 | 0.0 | 1.6 | 0.00 | 0.15 | 0.00 | 92 | 1017.0 |
| 20260508054703 | 7 | 194 | 0.0 | 1.6 | 0.00 | 0.15 | 0.00 | 91 | 1017.2 |
| 20260508054204 | 7 | 345 | 0.0 | 1.6 | 0.00 | 0.15 | 0.00 | 91 | 1017.1 |
| 20260508053703 | 7 | 354 | 0.0 | 1.6 | 0.00 | 0.15 | 0.00 | 91 | 1017.1 |
| 20260508053203 | 7 | 323 | 0.0 | 1.6 | 0.00 | 0.15 | 0.00 | 91 | 1017.2 |
| 20260508052204 | 7 | 203 | 1.6 | 1.6 | 0.00 | 0.15 | 0.00 | 91 | 1017.2 |
| 20260508051704 | 7 | 165 | 1.6 | 1.6 | 0.00 | 0.15 | 0.00 | 90 | 1017.1 |
| 20260508051203 | 7 | 170 | 0.0 | 1.6 | 0.00 | 0.15 | 0.00 | 90 | 1017.1 |
| 20260508050703 | 8 | 311 | 0.0 | 1.6 | 0.00 | 0.15 | 0.00 | 91 | 1017.0 |
| 20260508050203 | 8 | 300 | 0.0 | 1.6 | 0.00 | 0.15 | 0.00 | 91 | 1017.1 |
| 20260508045704 | 8 | 290 | 0.0 | 1.6 | 0.00 | 0.15 | 0.00 | 91 | 1016.9 |
| 20260508045204 | 8 | 283 | 0.0 | 1.6 | 0.00 | 0.15 | 0.00 | 91 | 1016.9 |
| 20260508044703 | 8 | 51 | 0.0 | 1.6 | 0.00 | 0.15 | 0.00 | 91 | 1016.9 |
| 20260508043704 | 8 | 180 | 1.6 | 4.8 | 0.00 | 0.15 | 0.00 | 91 | 1016.7 |
| 20260508043204 | 8 | 175 | 1.6 | 3.2 | 0.00 | 0.15 | 0.00 | 90 | 1016.7 |
| 20260508042704 | 8 | 112 | 0.0 | 1.6 | 0.00 | 0.15 | 0.00 | 90 | 1016.6 |
| 20260508042203 | 8 | 323 | 0.0 | 1.6 | 0.00 | 0.15 | 0.00 | 90 | 1016.6 |
| 20260508040704 | 8 | 327 | 0.0 | 1.6 | 0.00 | 0.15 | 0.00 | 91 | 1016.4 |
| 20260508035703 | 8 | 316 | 0.0 | 1.6 | 0.00 | 0.15 | 0.15 | 91 | 1016.4 |
| 20260508035204 | 8 | 356 | 0.0 | 1.6 | 0.00 | 0.15 | 0.15 | 90 | 1016.4 |
| 20260508034703 | 8 | 306 | 0.0 | 1.6 | 0.00 | 0.15 | 0.15 | 90 | 1016.2 |
| 20260508034203 | 8 | 20 | 0.0 | 1.6 | 0.00 | 0.15 | 0.15 | 90 | 1016.3 |
| 20260508033704 | 8 | 258 | 0.0 | 1.6 | 0.00 | 0.15 | 0.15 | 90 | 1016.3 |
| 20260508031703 | 8 | 274 | 0.0 | 1.6 | 0.00 | 0.15 | 0.15 | 89 | 1016.4 |
| 20260508031203 | 8 | 244 | 1.6 | 3.2 | 0.00 | 0.15 | 0.15 | 88 | 1016.4 |
| 20260508030203 | 9 | 329 | 0.0 | 1.6 | 0.00 | 0.15 | 0.15 | 88 | 1016.3 |
| 20260508025703 | 9 | 329 | 0.0 | 1.6 | 0.00 | 0.15 | 0.15 | 88 | 1016.2 |
| 20260508025203 | 9 | 15 | 0.0 | 1.6 | 0.00 | 0.15 | 0.15 | 88 | 1016.1 |
| 20260508024704 | 9 | 303 | 0.0 | 1.6 | 0.00 | 0.15 | 0.15 | 88 | 1015.9 |
| 20260508024203 | 9 | 309 | 0.0 | 1.6 | 0.00 | 0.15 | 0.15 | 88 | 1015.8 |
| 20260508023703 | 9 | 296 | 1.6 | 3.2 | 0.00 | 0.15 | 0.15 | 88 | 1015.7 |
| 20260508023203 | 10 | 283 | 1.6 | 3.2 | 0.00 | 0.15 | 0.15 | 87 | 1015.7 |
| 20260508022704 | 10 | 254 | 1.6 | 3.2 | 0.00 | 0.15 | 0.15 | 87 | 1015.7 |
| 20260508021704 | 10 | 311 | 1.6 | 1.6 | 0.00 | 0.15 | 0.15 | 86 | 1015.7 |
| 20260508021204 | 10 | 311 | 1.6 | 1.6 | 0.00 | 0.15 | 0.15 | 85 | 1015.7 |
| 20260508020703 | 10 | 351 | 0.0 | 1.6 | 0.00 | 0.15 | 0.15 | 85 | 1015.6 |
| 20260508020204 | 10 | 302 | 0.0 | 1.6 | 0.00 | 0.15 | 0.15 | 85 | 1015.6 |
| 20260508015703 | 10 | 348 | 0.0 | 1.6 | 0.00 | 0.18 | 0.15 | 85 | 1015.4 |
| 20260508015203 | 10 | 331 | 0.0 | 1.6 | 0.00 | 0.18 | 0.15 | 84 | 1015.2 |
| 20260508014704 | 11 | 325 | 0.0 | 1.6 | 0.00 | 0.18 | 0.15 | 84 | 1015.2 |
| 20260508014204 | 11 | 46 | 0.0 | 1.6 | 0.00 | 0.20 | 0.15 | 84 | 1015.2 |
| 20260508013703 | 11 | 321 | 0.0 | 1.6 | 0.00 | 0.25 | 0.15 | 84 | 1015.1 |
| 20260508013203 | 11 | 333 | 0.0 | 1.6 | 0.00 | 0.25 | 0.15 | 84 | 1015.0 |
| 20260508012204 | 11 | 65 | 0.0 | 3.2 | 0.00 | 0.28 | 0.15 | 83 | 1014.7 |
| 20260508011704 | 11 | 285 | 0.0 | 3.2 | 0.00 | 0.28 | 0.15 | 83 | 1014.8 |
| 20260508011204 | 12 | 305 | 0.0 | 3.2 | 0.00 | 0.28 | 0.15 | 82 | 1014.8 |
| 20260508005703 | 12 | 320 | 0.0 | 1.6 | 0.00 | 0.28 | 0.15 | 81 | 1014.5 |
| 20260508005203 | 12 | 331 | 1.6 | 1.6 | 0.00 | 0.30 | 0.15 | 80 | 1014.5 |
| 20260508004703 | 12 | 277 | 0.0 | 3.2 | 0.00 | 0.30 | 0.15 | 80 | 1014.4 |
| 20260508004204 | 13 | 194 | 0.0 | 1.6 | 0.00 | 0.33 | 0.15 | 79 | 1014.4 |
| 20260508003703 | 13 | 134 | 0.0 | 1.6 | 0.00 | 0.36 | 0.15 | 78 | 1014.3 |
| 20260508002704 | 13 | 217 | 1.6 | 3.2 | 0.00 | 0.41 | 0.15 | 77 | 1014.3 |
| 20260508002204 | 13 | 309 | 0.0 | 1.6 | 0.00 | 0.41 | 0.15 | 76 | 1014.3 |
| 20260508001703 | 14 | 259 | 1.6 | 3.2 | 0.00 | 0.41 | 0.15 | 75 | 1014.3 |
| 20260508001203 | 14 | 203 | 1.6 | 3.2 | 0.00 | 0.41 | 0.15 | 75 | 1014.2 |
| 20260508000703 | 15 | 242 | 1.6 | 3.2 | 0.00 | 0.41 | 0.15 | 74 | 1014.3 |
| 20260508000204 | 15 | 233 | 0.0 | 3.2 | 0.00 | 0.41 | 0.15 | 74 | 1014.3 |
| 20260507234703 | 15 | 246 | 1.6 | 3.2 | 0.00 | 0.41 | 0.15 | 73 | 1014.3 |
| 20260507234204 | 15 | 215 | 1.6 | 4.8 | 0.00 | 0.41 | 0.15 | 72 | 1014.3 |
| 20260507233703 | 16 | 251 | 1.6 | 4.8 | 0.00 | 0.41 | 0.15 | 72 | 1014.3 |
| 20260507232204 | 16 | 207 | 3.2 | 4.8 | 0.00 | 0.41 | 0.15 | 71 | 1014.4 |
| 20260507231704 | 16 | 281 | 1.6 | 4.8 | 0.00 | 0.41 | 0.15 | 71 | 1014.4 |
| 20260507231204 | 16 | 208 | 3.2 | 4.8 | 0.00 | 0.41 | 0.15 | 70 | 1014.4 |
| 20260507230203 | 16 | 213 | 1.6 | 8.0 | 0.00 | 0.41 | 0.15 | 70 | 1014.4 |
| 20260507225703 | 16 | 198 | 3.2 | 9.7 | 0.00 | 0.41 | 0.15 | 72 | 1014.4 |
| 20260507225203 | 16 | 215 | 1.6 | 9.7 | 0.00 | 0.41 | 0.15 | 72 | 1014.5 |
| 20260507224704 | 16 | 166 | 3.2 | 8.0 | 0.00 | 0.41 | 0.15 | 73 | 1014.4 |
| 20260507224204 | 16 | 272 | 1.6 | 4.8 | 0.00 | 0.41 | 0.15 | 73 | 1014.4 |
| 20260507223704 | 16 | 279 | 4.8 | 11.3 | 0.00 | 0.41 | 0.15 | 75 | 1014.5 |
| 20260507223203 | 15 | 266 | 3.2 | 4.8 | 0.00 | 0.41 | 0.15 | 74 | 1014.4 |
| 20260507222704 | 15 | 204 | 3.2 | 8.0 | 0.00 | 0.41 | 0.15 | 75 | 1014.4 |
| 20260507222203 | 15 | 166 | 3.2 | 4.8 | 0.00 | 0.41 | 0.15 | 74 | 1014.3 |
| 20260507221703 | 15 | 267 | 3.2 | 4.8 | 0.00 | 0.41 | 0.15 | 75 | 1014.3 |
| 20260507221203 | 15 | 301 | 1.6 | 4.8 | 0.00 | 0.41 | 0.15 | 73 | 1014.2 |
| 20260507220704 | 15 | 191 | 1.6 | 4.8 | 0.00 | 0.41 | 0.15 | 74 | 1014.2 |
| 20260507220203 | 15 | 356 | 1.6 | 4.8 | 0.00 | 0.41 | 0.15 | 74 | 1014.1 |
| 20260507215703 | 15 | 279 | 3.2 | 4.8 | 0.00 | 0.41 | 0.15 | 74 | 1014.2 |
| 20260507215204 | 15 | 211 | 3.2 | 4.8 | 0.00 | 0.41 | 0.15 | 75 | 1014.1 |
| 20260507214704 | 15 | 196 | 1.6 | 4.8 | 0.00 | 0.41 | 0.15 | 74 | 1014.1 |
| 20260507213203 | 15 | 175 | 3.2 | 8.0 | 0.00 | 0.41 | 0.15 | 77 | 1013.9 |
| 20260507212704 | 15 | 148 | 3.2 | 4.8 | 0.00 | 0.41 | 0.15 | 79 | 1013.8 |
| 20260507212203 | 14 | 162 | 1.6 | 8.0 | 0.00 | 0.41 | 0.15 | 79 | 1013.8 |
| 20260507211704 | 14 | 235 | 3.2 | 8.0 | 0.00 | 0.41 | 0.15 | 79 | 1014.0 |
| 20260507210703 | 13 | 201 | 1.6 | 4.8 | 0.00 | 0.41 | 0.15 | 82 | 1013.9 |
| 20260507210204 | 13 | 241 | 3.2 | 4.8 | 0.00 | 0.41 | 0.15 | 82 | 1013.8 |
| 20260507205703 | 13 | 277 | 3.2 | 4.8 | 0.00 | 0.41 | 0.15 | 84 | 1013.8 |
| 20260507204704 | 12 | 179 | 1.6 | 3.2 | 0.00 | 0.41 | 0.15 | 83 | 1013.7 |
| 20260507204204 | 12 | 190 | 1.6 | 4.8 | 0.00 | 0.41 | 0.15 | 84 | 1013.7 |
| 20260507203203 | 12 | 177 | 1.6 | 4.8 | 0.00 | 0.41 | 0.15 | 84 | 1013.9 |
| 20260507202704 | 12 | 285 | 0.0 | 3.2 | 0.00 | 0.41 | 0.15 | 83 | 1013.9 |
| 20260507202204 | 12 | 222 | 1.6 | 4.8 | 0.00 | 0.41 | 0.15 | 82 | 1014.1 |
| 20260507201704 | 12 | 311 | 1.6 | 4.8 | 0.00 | 0.41 | 0.15 | 82 | 1014.1 |
| 20260507201203 | 12 | 273 | 1.6 | 4.8 | 0.00 | 0.41 | 0.15 | 83 | 1014.0 |
| 20260507200703 | 12 | 285 | 3.2 | 4.8 | 0.00 | 0.41 | 0.15 | 83 | 1014.1 |
| 20260507200203 | 12 | 221 | 0.0 | 3.2 | 0.00 | 0.41 | 0.15 | 82 | 1013.9 |
| 20260507195704 | 12 | 256 | 1.6 | 4.8 | 0.00 | 0.41 | 0.15 | 83 | 1014.0 |